Overview Statistics Trail Chart Weather Telemetry Raw packets
 

This is the latest recevied weather packets stored in our database for station/object HP1COO-13. If no packets are shown the sender has not sent any weather packets the latest 10 day(s).

<< 39 40 41 42 43 44 45 >>
Time Temp. Humidity Pressure Rain* Wind** Luminosity Snow
1788019029 32.22° C 74% 1008.7 hPa 0 mm - - -
1788018396 32.22° C 71% 1008.7 hPa 0 mm - - -
1788017763 32.22° C 73% 1008.6 hPa 0 mm - - -
1788017130 32.22° C 74% 1008.7 hPa 0 mm - - -
1788016510 31.67° C 76% 1008.7 hPa 0 mm - - -
1788015864 32.22° C 74% 1008.5 hPa 0 mm - - -
1788015231 32.22° C 71% 1008.3 hPa 0 mm - - -
1788014598 32.22° C 70% 1008 hPa 0 mm - - -
1788013965 31.67° C 73% 1008.1 hPa 0 mm - - -
1788013332 32.22° C 74% 1007.9 hPa 0 mm - - -
1788012699 31.11° C 76% 1008.2 hPa 0 mm - - -
1788012066 31.67° C 77% 1008.1 hPa 0 mm - - -
1788011433 31.11° C 79% 1008.1 hPa 0 mm - - -
1788010800 30° C 82% 1008.1 hPa 0 mm - - -
1788010167 29.44° C 85% 1008 hPa 0 mm - - -
1788009534 28.89° C 88% 1008.1 hPa 0 mm - - -
1788008901 28.33° C 89% 1008 hPa 0 mm - - -
1788008268 27.78° C 91% 1007.8 hPa 0 mm - - -
1788007635 27.78° C 92% 1007.7 hPa 0 mm - - -
1788007009 27.78° C 93% 1007.3 hPa 0 mm - - -
1788006369 27.22° C 94% 1007.4 hPa 0 mm - - -
1788005736 26.67° C 95% 1007.5 hPa 0 mm - - -
1788005103 26.67° C 96% 1007.3 hPa 0 mm - - -
1788004470 26.67° C 96% 1007.7 hPa 0 mm - - -
1788003837 26.67° C 97% 1007.7 hPa 0 mm - - -

* Rain latest hour (hover to see other rain measurements)
** Current wind speed in m/s (hover to see current wind gust speed)